"Pseudo-MPEC" for A116lVm

Created 2024 May 21 19:22:03 UT using Find_Orb

Click here for an explanation of pseudo-MPECs

 
 Astrometry: 
     A116lVm* C2024 05 069'49+6dy;j*/*LIPO]dUmcIS=FUoxS.Yg!?Wer/H[nu_D$W'B2u,W68
     A116lVm  C2024 05 065(I6]46m#'24GP-VSBJN'I,_POK%[a.^QEWe6]29?yNf)5v\W!d9W68
     A116lVm  C2024 05 06JKR#Z5BMog*4#B!q;y[]4WtEX88\cj7cnqRf9\0J^RKUm%TNcB`]W68
     A116lVm  C2024 05 06AruZU9JlrcU_V5u\EE@RKOyP)(9%hPG`'o?+;A$XP=4elqekk=ApW68
     A116lVm  C2024 05 06m$x`*f7+'=2P\qlWOJbl_'80l*UcFPZm/2TmyExZbddx[V/1[KWtQ58
     A116lVm  C2024 05 06-p*yT9=jQHScFGDPcb;;wKJ.`P@Z]j6xXSx^FUHUISof;d'85R!vQ58
     A116lVm  C2024 05 06\uV??OU=-cocGprIr'hvZ]buGjg6vBfX=ww\LRyAstrometry3oIQ58
     A116lVm KC2024 05 07v=?Hf7O.3/Ev^l@%]HIteFqr#U_M$5jC]0[f?HOdx31mHZ;q.ZrYR56
     A116lVm KC2024 05 07\D78*dp?.:WOC7QsVP`AHSi)H:k)2Ke1bW;LNZ4BkRq5DHbTRHu!R56
     A116lVm KC2024 05 07V^XXOaE'V^KBf_V.QcY@-\(a4*65:Tssf#Ze#autp@`MOk6b1wD9R56
     A116lVm KC2024 05 098YC(H^6vWykBV-q*-r!MXNVI?Zo=MaPJiy.%O?[(eW^rOCYGD`YLI47
     A116lVm KC2024 05 09=\D6p9SC*mC]VH2O)n:a,2jOE7s,Jy#,C96Fyj*l3AH[-x?!lZ.YI47
     A116lVm *C2024 05 10J]$;10edgK.MD'L51rSu^`MW?kJx;aW0rAO]/E5'Cp-2\Y55TsO'K95
     A116lVm  C2024 05 10*k!uoSjW0TOR)f;]1*/!%A]^VLm)UN3!Obp],MG`WSCwncyxr#97K95
     A116lVm KC2024 05 10pc/Sr]gsg)jJ6qKvN%@sirSaLVTcLJ5XysEr:(4i;n5BBi1:BLASI47
     A116lVm  C2024 05 10'^%+e;chb6\kredacted;S/AC$]8mZ]7N%dI2k.8Ps-:7O'1m4e#L09
     A116lVm  C2024 05 10U.[9OsZ20ckN2$stpJmWd^`f@K4T6k0xL#yUv3A`P35ckb]a2+rPL09
     A116lVm  C2024 05 10CXqc)+sP(qV_J25^Su4@dQ1MiL9NDjqa5_FS2v5*,tTclr^'lIX$L09
     A116lVm  C2024 05 10P!PiOu3GQN\kti#JXaW,pOob!-inVr`#H*-w=.OFDt@3wEE_V+U+W68
     A116lVm  C2024 05 10qa-;U='Xt)b['Zi03*[yEtUP);*!l1d38BaA+C?22EpclickERETW68
     A116lVm  C2024 05 10*0I51K['6E:(gU$Lxkem6e=6eo5?vCJ`m_qtR/?l7,G;Yv$eio*,W68
     A116lVm KC2024 05 10+oVt5,=9F0R=)Lo8k;)wy0u5[^e$C54=$t4=@Eo7(A`t2!#crVN4I47
     A116lVm  C2024 05 10QcJIG5(jJa(kuE1t:#[cvG?T170_%Oe#?GGCbL/]qtX2w4GaeI?ZW68
     A116lVm 0B2024 05 11=)sBEOLe,k2S4P;`9RX4dD1yELn,7(#@Uf*L+6=qCQH8lakJOUH;M49
     A116lVm 0B2024 05 11.mgt=DQ^Q$*#/utZr(1rDvM1Dhtk0-^r,5V,g4jDwe?W^E:Iq8KmM49
     A116lVm  C2024 05 11e6kTd\d?DH7P7m6$'I$FB5^gO-^g2+Svag2%,0'C`jvwKW)#B;cnM22
     A116lVm  C2024 05 11H![Z,h\\)#nb/%i,?bvp9G'9P*[oEx=GSR[_uqu$uCg^0kBrgl1iM22
     A116lVm  C2024 05 12s$?W9hV7_Wj88)3c$7^HXCJihF;Ul'D?_Py`,jF=[^UqswbWyuT#M22
     A116lVm  C2024 05 12BJ3Rp:P6HfS/MCUjXmwsNZ*MU9Ps5T-g%!r;U@[.)bR8S0+-aI5^M22
     A116lVm 1C2024 05 12d9#mg9!NZORu_MWmV?yoLdTY%X9oX1/[XvtZJ/:Ta6mhG:y@:nmXQ62
     A116lVm 1C2024 05 12]ZtRvR`gv\VaKKofabU.T(pONXV29*i6\O#3f?CMjnBWU^f=`tWPQ62
     A116lVm  C2024 05 13O+.+qGijk%@)9`]3mQ/$amDX.Xen.JVmv$]@IFCE`*C=oN'M5NKnQ59
     A116lVm  C2024 05 13\C!k4G(K?BN[Br[(]%s,T3CO^ke'rgr,G?hIEaEMwgEXJGo)AU]uQ59
     A116lVm  C2024 05 13h'$LjaD1Y+XRs[Q5Z%2!JDKL9UGHlBjMGpkWDj)4v#INl)-$*1H0Q59
     A116lVm  C2024 05 137;?^=e'-9(#msZkO$u=Rf(DoiSU$=l?\Q\Xi;:Fb3Z-b^(Y84EA2M28
     A116lVm  C2024 05 13nd4G?8?21UcmWu6L564pB.$wGmBB%j,:kLR08dfU1CPJ?8^ucZ9KM28
     A116lVm  C2024 05 139jr,fn1V!KG'X2?vxt-u$cEwV^rsreD1/=que]+@.RG@@pn$lLAkM28
     A116lVm  C2024 05 15Iw)uJ:ogIf_xQB)r*6?%T:uK.y=[ub^Ll4wnNl5RXthereP/pZ[!Q59
     A116lVm  C2024 05 15pUZJoUOWUFl*/QVU?S#my8yWgPA]dV8Z1r^N48]Z*gC5CxTQ!*n!Q59
     A116lVm  C2024 05 15[Q];9WO%)h+WC:6([Z=Y2L04N:(OV=[m[PalfvnK-JI`Q]tH-tuHQ59
     A116lVm KC2024 05 15uWRQt3y/=:VwZRE+9o.;09y^b;E6vt9qQk%X!iuoEsOQ5jhC,R7_323
     A116lVm KC2024 05 156yT\iPV(GbsJA+%0'uUTJ`L_Qn]7Ftv]MPs'OE(krR3$Xw_S-9Wm323
     A116lVm  C2024 05 15?=D454N1q!D=Ctb%?[XR9jPxw77T*0K)x%3S*^TF)rCW4HvIZ)bJM28
     A116lVm  C2024 05 153:!J+VT[7naV':`@I`Iu)Z/Q0329O6j8*un9kOP`j`A_a.`d)ixlM28
     A116lVm  C2024 05 15A/Y-/C)S[g()N3W4#=/bqp$5SH4FiCYPyhs\uUJX^P,q-tu%]7wTM28
     A116lVm  C2024 05 16b!D;#X;lUuB.=pkmKoKcE1[-_02B!/QcduYh-t4I1Jg[oZ,d_o0JM22
     A116lVm  C2024 05 16*=/:)+l6Y018RrgA46,9#g.7MsPB)'cA]I7)_K9KcFCPg2gMKD:YM22
     A116lVm  C2024 05 166gRfc5Aj5^fL-WUm(Ilo;v6M=cxbWXxx0aF_,5xr+OqR2@pXi2TYM22
     A116lVm  C2024 05 16_rv^ZSp2+PmjSphK2MT]@XvxGbS[KW:_e0KpjU=qypAAuSo*6uJnM22
     A116lVm ZC2024 05 17KIphQj'b*@M:Ex*;UTfvu;)jEtepBkslYuwIV`-PgGOe+O[;)!k%Q62
     A116lVm ZC2024 05 17uIbIi2EZ+89ZijOI@qJo6Uxqp\L;ikd+:-=9gQZ\uvLJyFuIo2YGQ62
     A116lVm .C2024 05 18]))0ExS6=^*JUD8WOL9J#?OeJZ69'tBe^Bc7Xu=Q*aCa6I;L?j)^W88
     A116lVm .C2024 05 18ncr+y%D=@(TSb)pform31jt!:N@G`I_U2W`hV?3O\-Wj`ssVg`gWW88
     A116lVm KC2024 05 184iexplanationK_l=Fo!\Y;Ji47JEOn+IA6')GoLs12?N24*3Jc(M21
     A116lVm KC2024 05 18O,pfK@eT4K#Ug96J;+Q4p=-DOANFkDuw:;4[W,41M(GwC,N1Et9(M21
     A116lVm KB2024 05 196_sZ4JNP'18qL)D.*AQ6JblIZlDttZYGonLCxS:cE2ZK$ZFye7#(Y05
     A116lVm KB2024 05 19)Mbvq\JQprDxQ8%PJ_!@=5AUX@]aGE7(bIRZJpXH2c:k9dPn_m^cY05
     A116lVm KB2024 05 199^)vyPA7H#SLUgvKEx7.8(!VXo;%SuiF3LB3W$YAW+Qx[VCYn+KvY05
     A116lVm 3C2024 05 19,\/UQhcM1/`8,MoJQNEb4v`o-]O!hTQN6:^h]!;ndU,p)U@4*@wrW88
     A116lVm 3C2024 05 19p7g#upX=KdFa$*Oa_D0I@]r:qV4nN+`ob[fAR7_xxc\(%AiEZ_?=W88
     A116lVm  C2024 05 21W35gH]o-CeoXQjeBOc@mLu];@=_52MJyuaI\_4Qq?B\aK[8juu+pQ58
     A116lVm  C2024 05 21l,/'\+q1Gtm,.EW'A:Bln$enUCk;9]GI??_JjqqedWMci/^]Q+QUQ58
     A116lVm  C2024 05 21pEKKBpf6.g_M`xQ+o#p4Zww#,6`^A7m76?Yi)owJ.Je,pV%@j9qAQ58

Station data:
(323) Perth Observatory, Bickley  (S32.008741 E116.135000)  Australia/WA.
   Observers P. Camilleri, J. Oey, R. Groom. Measurer P. Camilleri. 0.40-m
   f/5 reflector + CCD.
(I47) Pierre Auger Observatory, Malargüe  (S35.495440 W69.449700)  Argentina.
    Observer M. Mašek. 0.3-m f/6.8 reflector + CCD.
(K95) MASTER-SAAO Observatory, Sutherland  (S32.380481 E20.811060)  South
   Africa.  Observers S. Bodrov, V. Lipunov, E. Gorbovskoy, Y. Kechin, N.
   Tiurina, P. Balanutsa, A. Kuznetsov, I. Gorbunov, F. Balakin, D.
   Zimnukhov, V. Kornilov, A. Krylov, D. Buckley, R. Podesta, F. Podesta, H.
   Levato, C. Francile. 0.4-m f/2.5 reflector + CCD.
(L09) Sutherland-LCO Aqawan A {#}1  (S32.380650 E20.809870)  South Africa.
   Observer A. Hale. 0.40-m f/10 Schmidt-Cassegrain + CCD.
(M21) Schiaparelli Southern Observatory, Hakos  (S23.236549 E16.361440)
   Namibia.  Observers A. Aletti, F. Bellini, L. Buzzi, G. Galli. Measurer L.
   Buzzi. 0.36-m f/8.4 reflector + CCD.
(M22) ATLAS South Africa, Sutherland  (S32.380156 E20.810590)  South Africa.
   Observers L. Denneau, R. Siverd, J. Tonry, H. Weiland. Measurers L.
   Denneau, N. Erasmus, A. Fitzsimmons, A. Lawrence, J. Robinson, R. Siverd,
   J. Tonry, H. Weiland. 0.5-m reflector + CCD.
(M28) Lesedi Telescope-SAAO Observatory, Sutherland  (S32.379790 E20.810640)
   South Africa.  Observer N. Erasmus. 1.0-m f/8 Reflector + CCD.
(M49) IAS Remote Observatory, Hakos  (S23.236549 E16.361720)  Namibia.
   Observers D. Husar, M. Junius. Measurer D. Husar. 0.25-m f/4.6 reflector +
   CCD.
(Q58) Siding Spring-LCO Clamshell {#}1  (S31.272852 E149.070850)  Australia/NSW.
     Observers T. Santana-Ros, L. Conversi, M. Micheli. Measurer M. Micheli.
   0.4-m reflector + CCD.
(Q59) Siding Spring-LCO Clamshell {#}2  (S31.272933 E149.070810)  Australia/NSW.
     Observer A. Hale. 0.40-m f/8 Schmidt-Cassegrain + CCD.
(Q62) iTelescope Observatory, Siding Spring  (S31.273286 E149.064420)
   Australia/NSW.  Observer H. Sato. 0.51-m f/6.8 astrograph + CCD + f/4.5
   focal reducer0.43-m f/6.8 astrograph + CCD + focal reducer0.43-m f/6.8
   astrograph + CCD0.10-m f/5 astrograph + CCD0.127-m f/5.6 refractor +
   CCD0.50-m f/6.8 reflector + CCD0.30-m f/9 reflector + CCD.
(R56) Scott Street Observatory, Lake Tekapo  (S44.009461 E170.483890)  New
   Zealand.
(W68) ATLAS Chile, Rio Hurtado  (S30.471010 W70.764980)  Chile.  Observers L.
   Denneau, R. Siverd, J. Tonry, H. Weiland. Measurers L. Denneau, N.
   Erasmus, A. Fitzsimmons, A. Lawrence, J. Robinson, R. Siverd, J. Tonry, H.
   Weiland. 0.5-m reflector + CCD.
(W88) Slooh.com Chile Observatory, La Dehesa  (S33.269126 W70.534300)  Chile.
    Observers B. Lütkenhöner, E. Cortes. Measurers B. Lutkenhoner, G.
   Gašparović, Y. Chen, G. Y. Gasparovic, M. Kumrucu-Lohmiller, N. Paul, R.
   W. Anderson. 0.43-m f/6.8 Corrected Dall- Kirkham + CCD0.35-m f/11.0
   Schmidt-Cassegrain + CCD.
(Y05) SONEAR Wykrota-CEAMIG, Serra da Piedade  (S19.824251 W43.690000)
   Brazil.  Observer C. Jacques. 0.45-m f/2.9 reflector + CMO.

Orbital elements:  A116lVm
   Perihelion 2026 Dec 24.17692 TT =  4:14:46 (JD 2461398.67692)
Epoch 2024 May 21.0 TT = JDT 2460451.5   Ju: 0.7531   Sa: 0.7988
M 358.33272171                      (J2000 ecliptic)             AutoNEOCP
n   0.00176026     Peri.   74.42168
a  67.9336149      Node   286.20554
e   0.9418275      Incl.   74.89196
P 559.92           H    9.13    G   0.15   q 3.95186145  Q 131.915368
From 63 observations 2024 May 6-21; mean residual 0".49
Residuals in arcseconds: 
240506 W68  .21+  .43+    240510 I47  .44-  .73-    240515 M28  .03-  .32+    
240506 W68  1.2+  .42-    240510 W68  .58+  .67+    240515 M28  .21+  .26+    
240506 W68  .09-  .86-    240511 M49  .02+  .28+    240515 M28  .02+  .00     
240506 W68  .26-  .91-    240511 M49  .15+  .31+    240516 M22  .66-  .25+    
240506 Q58  .66+  .26+    240511 M22  .16-  .00     240516 M22  .50-  .28-    
240506 Q58  .80+  .33+    240511 M22  .12-  .44+    240516 M22  .04-  .58-    
240506 Q58  .18+  .59-    240512 M22  1.2-  .65-    240516 M22  .70-  .48-    
240507 R56  .12+  .48+    240512 M22  .62-  .33-    240517 Q62  .13-  .26+    
240507 R56  .40+  .39+    240512 Q62  .16-  .28+    240517 Q62  .39-  .15-    
240507 R56  .49+  .19+    240512 Q62  .06+  .26+    240518 W88  1.1+  1.0-    
240509 I47  .07+  .03-    240513 Q59  .12-  .28+    240518 W88  1.2+  .47-    
240509 I47  .11-  .39-    240513 Q59  .11+  .55+    240518 M21  .56+  1.2+    
240510 K95  1.3-  .32+    240513 Q59  .43-  .09-    240518 M21  .24+  .32+    
240510 K95  .15-  .73+    240513 M28  .15-  .17-    240519 Y05  .55+  .03+    
240510 I47  .00   .44-    240513 M28  .15-  .13-    240519 Y05  .20-  .26+    
